CW2234 Weather Reports


Display with metric or nautical units.
time (UTC)temp
F
wind
direction
speed
MPH
gust
MPH
rain 1hr
in
rain 24hr
in
rain mn
in
humidity
%
barometer
mb
20260903221604 76 107 3.0 10.0 0.00 0.00 0.00 74 1012.3
20260903220123 76 98 2.0 9.0 0.00 0.00 0.00 74 1012.5
20260903214600 76 136 4.0 10.0 0.00 0.00 0.00 74 1012.5
20260903213101 76 98 3.0 10.0 0.00 0.00 0.00 73 1012.5
20260903211604 77 136 3.0 9.0 0.00 0.00 0.00 73 1012.5
20260903210109 77 100 3.0 7.0 0.00 0.00 0.00 72 1012.7
20260903204600 78 103 2.0 7.0 0.00 0.00 0.00 71 1012.8
20260903203130 78 126 3.0 9.0 0.00 0.00 0.00 70 1012.8
20260903201606 78 130 3.0 12.0 0.00 0.00 0.00 70 1012.8
20260903200104 78 138 3.0 10.0 0.00 0.00 0.00 71 1013.1
20260903194602 78 147 1.0 7.0 0.00 0.00 0.00 70 1013.1
20260903193101 78 123 1.0 6.0 0.00 0.00 0.00 70 1013.3
20260903191604 77 95 0.0 7.0 0.00 0.00 0.00 70 1013.5
20260903184601 78 111 1.0 5.0 0.00 0.00 0.00 69 1013.8
20260903183102 78 0 1.0 8.0 0.00 0.00 0.00 70 1014.0
20260903181600 78 88 1.0 4.0 0.00 0.00 0.00 68 1014.0
20260903174604 76 71 1.0 4.0 0.00 0.00 0.00 71 1014.2
20260903173101 75 351 3.0 8.0 0.00 0.00 0.00 72 1014.3
20260903171612 73 17 4.0 8.0 0.00 0.00 0.00 74 1014.3
20260903170107 72 238 2.0 5.0 0.00 0.00 0.00 77 1014.2
20260903164637 71 232 2.0 6.0 0.00 0.00 0.00 78 1014.3
20260903163103 71 309 3.0 8.0 0.00 0.00 0.00 78 1014.3
20260903161558 71 319 2.0 6.0 0.00 0.00 0.00 78 1014.4
20260903160105 71 360 2.0 5.0 0.00 0.00 0.00 79 1014.4
20260903154602 71 46 2.0 5.0 0.00 0.00 0.00 79 1014.4
20260903153103 71 309 1.0 4.0 0.00 0.00 0.00 80 1014.2
20260903151601 70 32 1.0 4.0 0.00 0.00 0.00 84 1014.3
20260903150101 69 45 0.0 4.0 0.00 0.00 0.00 84 1014.4
20260903144614 69 49 0.0 4.0 0.00 0.00 0.00 85 1014.3
20260903143105 68 0 0.0 3.0 0.00 0.00 0.00 86 1014.2
20260903141602 68 0 0.0 2.0 0.00 0.00 0.00 87 1013.9
20260903140105 67 42 0.0 2.0 0.00 0.00 0.00 88 1013.8
20260903134620 67 0 0.0 2.0 0.00 0.00 0.00 88 1013.7
20260903133109 67 0 0.0 2.0 0.00 0.00 0.00 88 1013.6
20260903131606 67 42 0.0 3.0 0.00 0.00 0.00 88 1013.7
20260903124610 67 0 0.0 2.0 0.00 0.00 0.00 88 1013.6
20260903123104 67 42 0.0 3.0 0.00 0.00 0.00 88 1013.6
20260903121615 67 43 1.0 3.0 0.00 0.00 0.00 88 1013.7
20260903120110 67 46 2.0 4.0 0.00 0.00 0.00 88 1013.6
20260903114601 67 51 2.0 5.0 0.00 0.00 0.00 88 1013.6
20260903113144 67 71 2.0 5.0 0.00 0.00 0.00 89 1013.8
20260903111602 67 96 1.0 3.0 0.00 0.00 0.00 89 1013.8
20260903110105 67 109 1.0 3.0 0.00 0.00 0.00 89 1013.8
20260903104611 67 108 1.0 4.0 0.00 0.00 0.00 89 1013.9
20260903103106 67 117 1.0 3.0 0.00 0.00 0.00 90 1013.9
20260903101603 67 119 1.0 4.0 0.00 0.00 0.00 90 1014.0
20260903094601 67 0 0.0 0.0 0.00 0.00 0.00 89 1014.0
20260903093106 67 0 0.0 2.0 0.00 0.00 0.00 89 1014.1
20260903091602 67 0 0.0 2.0 0.00 0.00 0.00 88 1014.1
20260903090058 67 0 0.0 1.0 0.00 0.00 0.00 88 1014.3
20260903084553 68 0 0.0 0.0 0.00 0.00 0.00 88 1014.3
20260903083105 68 0 0.0 2.0 0.00 0.00 0.00 88 1014.4
20260903081601 68 0 1.0 4.0 0.00 0.00 0.00 88 1014.4
20260903074552 68 0 0.0 3.0 0.00 0.00 0.00 87 1014.6
20260903073106 68 147 0.0 5.0 0.00 0.00 0.00 87 1014.6
20260903071613 68 0 1.0 4.0 0.00 0.00 0.00 87 1014.5
20260903064603 69 0 0.0 3.0 0.00 0.00 0.00 86 1014.4
20260903063103 69 153 0.0 3.0 0.00 0.00 0.00 85 1014.3
20260903061606 69 0 0.0 7.0 0.00 0.00 0.00 84 1014.3
20260903060101 69 0 0.0 3.0 0.00 0.00 0.00 82 1014.2
20260903054554 70 140 1.0 4.0 0.00 0.00 0.00 82 1014.1
20260903053102 70 119 1.0 8.0 0.00 0.00 0.00 81 1014.1
20260903051614 70 111 1.0 7.0 0.00 0.00 0.00 81 1014.1
20260903050115 71 115 1.0 6.0 0.00 0.00 0.00 80 1014.1
20260903044602 71 139 1.0 8.0 0.00 0.00 0.00 79 1014.1
20260903043204 71 121 1.0 6.0 0.00 0.00 0.00 78 1014.0
20260903041555 70 0 0.0 3.0 0.00 0.00 0.00 79 1014.1
20260903040107 70 146 0.0 3.0 0.00 0.00 0.00 81 1014.1
20260903034559 70 166 0.0 3.0 0.00 0.00 0.00 83 1014.0
20260903033057 71 119 1.0 4.0 0.00 0.00 0.00 81 1013.8
20260903031604 71 161 0.0 3.0 0.00 0.00 0.00 79 1013.7
20260903030103 71 171 0.0 3.0 0.00 0.00 0.00 77 1013.7
20260903024608 71 152 0.0 4.0 0.00 0.00 0.00 76 1013.7
20260903023055 71 114 1.0 7.0 0.00 0.00 0.00 75 1013.7
20260903021604 71 157 0.0 7.0 0.00 0.00 0.00 74 1013.7
20260903020105 72 111 0.0 4.0 0.00 0.00 0.00 73 1013.7
20260903014604 72 92 1.0 7.0 0.00 0.00 0.00 75 1013.8
20260903013109 73 117 3.0 8.0 0.00 0.00 0.00 73 1013.8
20260903011602 74 0 2.0 7.0 0.00 0.00 0.00 73 1013.9
20260903010106 74 148 3.0 11.0 0.00 0.00 0.00 73 1013.9
20260903004606 74 124 2.0 14.0 0.00 0.00 0.00 74 1013.9
20260903003100 74 0 3.0 10.0 0.00 0.00 0.00 73 1013.8
20260903001606 74 142 2.0 10.0 0.00 0.00 0.00 75 1013.9
20260902234616 75 135 3.0 13.0 0.00 0.00 0.00 72 1014.1
20260902233104 76 148 3.0 12.0 0.00 0.00 0.00 71 1014.1
20260902231610 77 126 3.0 12.0 0.00 0.00 0.00 69 1014.2
20260902230107 77 105 1.0 11.0 0.00 0.00 0.00 67 1014.3
20260902224612 78 119 1.0 10.0 0.00 0.00 0.00 66 1014.3
20260902223107 78 98 1.0 7.0 0.00 0.00 0.00 63 1014.5